TimeBST,TemperatureF,Dew PointF,Humidity,Sea Level PressureIn,VisibilityMPH,Wind Direction,Wind SpeedMPH,Gust SpeedMPH,PrecipitationIn,Events,Conditions,WindDirDegrees,DateUTC
12:20 AM,48.2,44.6,87,29.09,3.7,SSW,18.4,-,N/A,Rain,Light Rain,200,2013-04-17 23:20:00
12:50 AM,48.2,44.6,87,29.09,2.8,SSW,16.1,-,N/A,Rain,Light Rain,200,2013-04-17 23:50:00
1:20 AM,48.2,46.4,93,29.09,5.0,SSW,23.0,38.0,N/A,Rain,Light Rain,210,2013-04-18 00:20:00
1:50 AM,48.2,46.4,93,29.09,4.3,SSW,26.5,-,N/A,Rain,Light Rain,210,2013-04-18 00:50:00
2:20 AM,48.2,46.4,93,29.09,3.1,SW,23.0,-,N/A,Rain,Rain,220,2013-04-18 01:20:00
2:50 AM,48.2,46.4,93,29.09,3.7,SW,24.2,-,N/A,Rain,Light Rain,220,2013-04-18 01:50:00
3:20 AM,48.2,46.4,93,29.09,-9999.0,SW,24.2,-,N/A,Rain,Light Rain,220,2013-04-18 02:20:00
3:50 AM,48.2,46.4,93,29.09,-9999.0,SW,25.3,-,N/A,Rain,Rain,230,2013-04-18 02:50:00
4:20 AM,48.2,46.4,93,29.12,-9999.0,WSW,23.0,-,N/A,Rain,Light Rain,240,2013-04-18 03:20:00
4:50 AM,48.2,44.6,87,29.15,6.2,West,20.7,-,N/A,Rain,Light Rain,260,2013-04-18 03:50:00
5:20 AM,46.4,42.8,87,29.18,6.2,West,21.9,-,N/A,Rain,Light Rain,260,2013-04-18 04:20:00
5:50 AM,46.4,41.0,81,29.21,6.2,West,24.2,-,N/A,Rain,Light Rain,270,2013-04-18 04:50:00
6:20 AM,46.4,39.2,76,29.24,6.2,West,26.5,-,N/A,Rain,Light Rain,270,2013-04-18 05:20:00
6:50 AM,44.6,41.0,87,29.27,4.3,West,25.3,-,N/A,Rain,Light Rain,270,2013-04-18 05:50:00
7:20 AM,46.4,41.0,81,29.27,5.6,West,27.6,41.4,N/A,Rain,Light Rain,260,2013-04-18 06:20:00
7:50 AM,46.4,39.2,76,29.30,5.6,West,29.9,-,N/A,,Mostly Cloudy,260,2013-04-18 06:50:00
8:20 AM,46.4,39.2,76,29.30,6.2,WSW,27.6,-,N/A,,Mostly Cloudy,250,2013-04-18 07:20:00
8:50 AM,46.4,39.2,76,29.36,6.2,WSW,20.7,-,N/A,,Scattered Clouds,250,2013-04-18 07:50:00
9:20 AM,48.2,39.2,71,29.39,6.2,WSW,19.6,-,N/A,,Scattered Clouds,250,2013-04-18 08:20:00
9:50 AM,48.2,41.0,76,29.39,6.2,WSW,26.5,42.6,N/A,,Mostly Cloudy,250,2013-04-18 08:50:00
10:20 AM,48.2,41.0,76,29.42,6.2,WSW,24.2,36.8,N/A,,Mostly Cloudy,250,2013-04-18 09:20:00
10:50 AM,48.2,41.0,76,29.42,6.2,WSW,27.6,-,N/A,,Mostly Cloudy,250,2013-04-18 09:50:00
11:20 AM,50.0,41.0,71,29.42,6.2,WSW,27.6,41.4,N/A,,Scattered Clouds,250,2013-04-18 10:20:00
11:50 AM,48.2,41.0,76,29.44,5.0,WSW,28.8,40.3,N/A,Rain,Light Rain,250,2013-04-18 10:50:00
12:20 PM,48.2,41.0,76,29.47,6.2,West,24.2,-,N/A,,Mostly Cloudy,260,2013-04-18 11:20:00
12:50 PM,51.8,44.6,76,29.47,6.2,WSW,24.2,-,N/A,,Mostly Cloudy,250,2013-04-18 11:50:00
1:20 PM,50.0,42.8,76,29.47,6.2,West,21.9,-,N/A,,Mostly Cloudy,260,2013-04-18 12:20:00
1:50 PM,50.0,44.6,82,29.50,6.2,WSW,23.0,-,N/A,Rain,Light Rain,250,2013-04-18 12:50:00
2:20 PM,51.8,44.6,76,29.50,6.2,WSW,21.9,-,N/A,,Mostly Cloudy,250,2013-04-18 13:20:00
2:50 PM,51.8,44.6,76,29.53,6.2,WSW,24.2,-,N/A,,Mostly Cloudy,250,2013-04-18 13:50:00
3:20 PM,51.8,42.8,71,29.53,6.2,West,21.9,-,N/A,,Mostly Cloudy,260,2013-04-18 14:20:00
3:50 PM,51.8,42.8,71,29.56,6.2,West,23.0,-,N/A,,Mostly Cloudy,260,2013-04-18 14:50:00
4:20 PM,51.8,42.8,71,29.56,6.2,West,23.0,34.5,N/A,,Mostly Cloudy,260,2013-04-18 15:20:00
4:50 PM,48.2,42.8,82,29.59,6.2,West,21.9,-,N/A,,Mostly Cloudy,270,2013-04-18 15:50:00
5:20 PM,48.2,42.8,82,29.62,6.2,West,17.3,-,N/A,,Mostly Cloudy,270,2013-04-18 16:20:00
5:50 PM,48.2,42.8,82,29.65,6.2,West,18.4,-,N/A,,Mostly Cloudy,280,2013-04-18 16:50:00
6:20 PM,48.2,42.8,82,29.65,6.2,West,13.8,-,N/A,,Scattered Clouds,280,2013-04-18 17:20:00
6:50 PM,48.2,42.8,82,29.68,6.2,West,12.7,-,N/A,,Scattered Clouds,280,2013-04-18 17:50:00
7:20 PM,48.2,41.0,76,29.71,6.2,WNW,11.5,-,N/A,,Scattered Clouds,290,2013-04-18 18:20:00
7:50 PM,48.2,39.2,71,29.74,6.2,WNW,12.7,-,N/A,,Partly Cloudy,290,2013-04-18 18:50:00
8:20 PM,46.4,39.2,76,29.74,6.2,WNW,12.7,-,N/A,,Partly Cloudy,300,2013-04-18 19:20:00
8:50 PM,46.4,39.2,76,29.77,6.2,WNW,12.7,-,N/A,,Partly Cloudy,290,2013-04-18 19:50:00
9:20 PM,46.4,39.2,76,29.80,6.2,WNW,13.8,-,N/A,,Partly Cloudy,300,2013-04-18 20:20:00
9:50 PM,44.6,39.2,81,29.83,6.2,WNW,9.2,-,N/A,,Partly Cloudy,300,2013-04-18 20:50:00
10:20 PM,44.6,39.2,81,29.86,-9999.0,WNW,12.7,-,N/A,,Clear,290,2013-04-18 21:20:00
10:50 PM,44.6,37.4,76,29.89,-9999.0,WNW,10.4,-,N/A,,Clear,290,2013-04-18 21:50:00
11:20 PM,44.6,39.2,81,29.89,-9999.0,WNW,12.7,-,N/A,,Clear,300,2013-04-18 22:20:00
11:50 PM,44.6,39.2,81,29.92,-9999.0,WNW,11.5,-,N/A,,Clear,300,2013-04-18 22:50:00